Regional Weather Roundup
Issued by NWS Sterling, VA

Home | Current Version | Previous Version | Text Only | Print | Product List | Glossary Off
Versions: 1 2 3 4 5 6 7 8 9 10 11 12 13 14 15 16 17 18 19 20 21 22 23 24 25 26 27 28

000
ASUS41 KLWX 220511
RWRLWX

REGIONAL WEATHER ROUNDUP
NATIONAL WEATHER SERVICE BALTIMORE MD/WASHINGTON DC
100 AM EDT SUN APR 22 2018

Note: "FAIR" indicates few or no clouds below 12,000 feet
with no significant weather and/or obstructions to visibility.
 TC=TEMPERATURE CELSIUS

 * =Non NWS site. Station does not report precipitation (e.g. rain,
    snow, etc.), thunder, or fog.

DCZ001-MDZ009-015-VAZ040>042-051-053>054-220600-
WASHINGTON METRO

CITY           SKY/WX    TMP DP  RH WIND       PRES   REMARKS
WASHINGTON NAT MOCLDY    52  40  63 S5        30.39S
DULLES         CLOUDY    48  39  71 CALM      30.38R
ANDREWS AFB    MOCLDY    48  37  67 CALM      30.38R
FT BELVOIR     CLOUDY    47  33  59 CALM      30.39R
QUANTICO       FAIR      52  42  69 S6        30.39S
COLLEGE PARK*  FAIR      47  35  63 CALM      30.38S
LEESBURG*      FAIR      48  39  71 CALM      30.39R
MANASSAS*      FAIR      48  39  71 CALM      30.39R
GAITHERSBURG*  FAIR      49  33  54 SE3       30.38S

$$

MDZ006>007-011-014-220600-
BALTIMORE METRO

CITY           SKY/WX    TMP DP  RH WIND       PRES   REMARKS
BWI AIRPORT    MOCLDY    47  35  63 CALM      30.38R
MD SCIENCE CTR   N/A     53  32  44 MISG      30.39R
MARTIN STATE   FAIR      46  43  87 CALM      30.41R
ANNAPOLIS      FAIR      52  38  58 CALM      30.38R
FORT MEADE*    FAIR      43  36  75 CALM      30.41S

$$

MDZ012-015-019>023-220600-
MARYLAND EASTERN SHORE

CITY           SKY/WX    TMP DP  RH WIND       PRES   REMARKS
OCEAN CITY     FAIR      43  42  97 SW3       30.40R
SALISBURY      FAIR      41  38  89 CALM      30.40R
BAY BRIDGE AP* FAIR      50  39  66 S3        30.39S
CAMBRIDGE*       N/A     43  39  87 CALM      30.39S
EASTON*        FAIR      47  37  68 CALM      30.42S

$$

MDZ017>025-220600-
SOUTHERN MARYLAND

CITY           SKY/WX    TMP DP  RH WIND       PRES   REMARKS
PATUXENT RIVER FAIR      48  40  73 CALM      30.39R
ST INIGOES     FAIR      49  43  80 S5        30.40R
LEONARDTOWN*   FAIR      45  36  70 CALM      30.41R

$$

MDZ003>005-220600-
NORTH CENTRAL MARYLAND

CITY           SKY/WX    TMP DP  RH WIND       PRES   REMARKS
FREDERICK*     FAIR      43  36  75 CALM      30.41R
HAGERSTOWN APT FAIR      49  33  54 CALM      30.37R
WESTMINSTER*   FAIR      48  32  53 CALM      30.38R

$$

MDZ501>502-220600-
WESTERN MARYLAND

CITY           SKY/WX    TMP DP  RH WIND       PRES   REMARKS
OAKLAND*       FAIR      43  19  39 E8        30.34S
CUMBERLAND*    FAIR      48  30  49 N3        30.40S

$$

VAZ025>031-220600-
SHENANDOAH VALLEY

CITY           SKY/WX    TMP DP  RH WIND       PRES   REMARKS
WINCHESTER*    FAIR      45  32  61 CALM      30.38R
FRONT ROYAL*   FAIR      48  32  53 CALM      30.36R
LURAY*         FAIR      45  36  70 CALM      30.36R
NEW MARKET*    FAIR      44  33  64 CALM      30.36R
STAUNTON*      FAIR      47  33  57 CALM      30.37R
WAYNESBORO*    FAIR      53  30  41 CALM      30.35R

$$

WVZ021-048>050-054>055-220600-
EASTERN WEST VIRGINIA PANHANDLE

CITY           SKY/WX    TMP DP  RH WIND       PRES   REMARKS
MARTINSBURG    FAIR      47  34  60 NW3       30.36R
PETERSBURG*    FAIR      42  33  71 CALM      30.36S

$$

VAZ036>039-050-220600-
CENTRAL FOOTHILLS

CITY           SKY/WX    TMP DP  RH WIND       PRES   REMARKS
CHARLOTTESVILL FAIR      56  31  38 NE6       30.36R
CULPEPER*      FAIR      46  34  62 CALM      30.39R
ORANGE*        FAIR      50  36  57 CALM      30.37R
GORDONSVILLE*  FAIR      49  42  74 NE3       30.37R
WARRENTON*     FAIR      46  38  73 CALM      30.37S

$$

VAZ055>057-220600-
NORTH AND CENTRAL PIEDMONT

CITY           SKY/WX    TMP DP  RH WIND       PRES   REMARKS
FREDERICKSBRG* FAIR      51  40  66 CALM      30.38S
STAFFORD*      FAIR      49  37  63 CALM      30.42S

$$

NCZ024-NYZ072-PAZ021-071-VAZ022-071-220600-
OTHER REGIONAL OBSERVATIONS

CITY           SKY/WX    TMP DP  RH WIND       PRES   REMARKS
NEW YORK CITY  FAIR      52  19  27 VRB3      30.39R
PHILADELPHIA   CLOUDY    46  33  60 NE5       30.39R
PITTSBURGH     CLOUDY    49  29  46 NE8       30.35S
ROANOKE        FAIR      52  32  46 CALM      30.35S
RICHMOND       CLOUDY    47  41  80 SE6       30.38S
RALEIGH        FAIR      54  39  57 S8        30.36R

$$

ANZ530>537-220600-
MARINE OBSERVATIONS

STATION/POSITION TIME  TEMP    WIND        PRES
                       AIR SEA DIR/SP/G
                 (UTC) (F)     (DEG/KT/KT) (MB)
THOMAS PT LIGHT  0500   51 51  200/  6/  7 1030.1R
BALT KEY BRIDGE  0448   51     260/  3/  3 1029.1R
COVE POINT       0448   50     190/  5/  6 1029.8R
LEWISETTA        0448   49 54  210/  9/ 11 1029.3R
SOLOMONS ISLAND  0448   48 53  190/  1/  2 1029.0R
PINEY POINT      0448          200/  5/  6   N/A

$$





USA.gov is the U.S. government's official web portal to all federal, state and local government web resources and services.